contact:dominique.lefevre@mio.osupytheas.fr, maurice.libes@osupytheas.fr, didier.mallarino@osupytheas.fr
Project:EMSO http://www.emso-fr.org/EMSO-France
Depth: 2436.0 m
Title:EMSO Ligure Ouest : Data MII capteur MICROCAT
DateTime_Computer,Latitude,Longitude,Temperature,Conductivity,Pressure,DateTime_Instrument
DateTime_Computer,Latitude,Longitude,degC,S m-1,dbar,DateTime_Instrument
2020-05-21T00:01:25Z,42.805,6.029,13.2983,4.59985,2469.984,2020-5-21T02:02:08Z
2020-05-21T00:04:29Z,42.805,6.029,13.2978,4.59978,2469.97,2020-5-21T02:05:11Z
2020-05-21T00:07:32Z,42.805,6.029,13.2986,4.59978,2469.97,2020-5-21T02:08:14Z
2020-05-21T00:10:35Z,42.805,6.029,13.2986,4.59991,2469.984,2020-5-21T02:11:18Z
2020-05-21T00:13:39Z,42.805,6.029,13.2979,4.59979,2470.007,2020-5-21T02:14:21Z
2020-05-21T00:16:42Z,42.805,6.029,13.2991,4.60000,2470.007,2020-5-21T02:17:24Z
2020-05-21T00:19:45Z,42.805,6.029,13.3000,4.59984,2470.007,2020-5-21T02:20:27Z
2020-05-21T00:22:48Z,42.805,6.029,13.2981,4.60007,2469.97,2020-5-21T02:23:31Z
2020-05-21T00:25:51Z,42.805,6.029,13.2993,4.59997,2469.984,2020-5-21T02:26:34Z
2020-05-21T00:28:55Z,42.805,6.029,13.2999,4.59991,2469.984,2020-5-21T02:29:37Z
2020-05-21T00:31:58Z,42.805,6.029,13.2979,4.59985,2469.984,2020-5-21T02:32:40Z
2020-05-21T00:35:01Z,42.805,6.029,13.3004,4.60003,2469.984,2020-5-21T02:35:43Z
2020-05-21T00:38:04Z,42.805,6.029,13.3006,4.60017,2469.984,2020-5-21T02:38:47Z
2020-05-21T00:41:08Z,42.805,6.029,13.2998,4.60056,2469.97,2020-5-21T02:41:50Z
2020-05-21T00:44:11Z,42.805,6.029,13.3011,4.60016,2469.97,2020-5-21T02:44:53Z
2020-05-21T00:47:14Z,42.805,6.029,13.3009,4.60001,2469.993,2020-5-21T02:47:56Z
2020-05-21T00:50:17Z,42.805,6.029,13.3003,4.60049,2469.97,2020-5-21T02:51:00Z
2020-05-21T00:53:20Z,42.805,6.029,13.2993,4.60052,2469.97,2020-5-21T02:54:03Z
2020-05-21T00:56:24Z,42.805,6.029,13.2998,4.60041,2469.984,2020-5-21T02:57:06Z
2020-05-21T00:59:27Z,42.805,6.029,13.3009,4.60054,2469.97,2020-5-21T03:00:10Z
2020-05-21T01:02:30Z,42.805,6.029,13.3016,4.59997,2469.984,2020-5-21T03:03:13Z
2020-05-21T01:05:34Z,42.805,6.029,13.3015,4.60009,2469.97,2020-5-21T03:06:16Z
2020-05-21T01:08:37Z,42.805,6.029,13.3007,4.60010,2470.007,2020-5-21T03:09:19Z
2020-05-21T01:11:40Z,42.805,6.029,13.3013,4.60031,2469.96,2020-5-21T03:12:22Z
2020-05-21T01:14:43Z,42.805,6.029,13.3000,4.60032,2469.97,2020-5-21T03:15:26Z
2020-05-21T01:17:47Z,42.805,6.029,13.2991,4.60021,2469.923,2020-5-21T03:18:29Z
2020-05-21T01:20:50Z,42.805,6.029,13.2990,4.60054,2469.984,2020-5-21T03:21:32Z
2020-05-21T01:23:53Z,42.805,6.029,13.2993,4.60047,2469.984,2020-5-21T03:24:35Z
2020-05-21T01:26:56Z,42.805,6.029,13.2991,4.60049,2469.97,2020-5-21T03:27:39Z
2020-05-21T01:30:00Z,42.805,6.029,13.2991,4.60057,2469.984,2020-5-21T03:30:42Z
2020-05-21T01:33:03Z,42.805,6.029,13.2989,4.60029,2469.984,2020-5-21T03:33:45Z
2020-05-21T01:36:06Z,42.805,6.029,13.2991,4.60057,2469.97,2020-5-21T03:36:48Z
2020-05-21T01:39:09Z,42.805,6.029,13.2995,4.60062,2469.947,2020-5-21T03:39:52Z
2020-05-21T01:42:13Z,42.805,6.029,13.2990,4.60038,2469.947,2020-5-21T03:42:55Z
2020-05-21T01:45:16Z,42.805,6.029,13.2993,4.60040,2470.007,2020-5-21T03:45:58Z
2020-05-21T01:48:19Z,42.805,6.029,13.2996,4.60036,2469.947,2020-5-21T03:49:01Z
2020-05-21T01:51:22Z,42.805,6.029,13.2998,4.60087,2469.947,2020-5-21T03:52:05Z
2020-05-21T01:54:26Z,42.805,6.029,13.3005,4.60050,2469.984,2020-5-21T03:55:08Z
2020-05-21T01:57:29Z,42.805,6.029,13.2994,4.60069,2469.984,2020-5-21T03:58:11Z
2020-05-21T02:00:32Z,42.805,6.029,13.2993,4.60067,2469.984,2020-5-21T04:01:14Z
2020-05-21T02:03:35Z,42.805,6.029,13.2995,4.60062,2469.96,2020-5-21T04:04:18Z
2020-05-21T02:06:39Z,42.805,6.029,13.3002,4.60061,2470.007,2020-5-21T04:07:21Z
2020-05-21T02:09:42Z,42.805,6.029,13.2991,4.60062,2469.984,2020-5-21T04:10:24Z
2020-05-21T02:12:45Z,42.805,6.029,13.3007,4.60047,2469.984,2020-5-21T04:13:28Z
2020-05-21T02:15:48Z,42.805,6.029,13.3000,4.60062,2469.947,2020-5-21T04:16:31Z
2020-05-21T02:18:52Z,42.805,6.029,13.3001,4.60096,2469.947,2020-5-21T04:19:34Z
2020-05-21T02:21:55Z,42.805,6.029,13.3026,4.60047,2469.97,2020-5-21T04:22:37Z
2020-05-21T02:24:58Z,42.805,6.029,13.3025,4.60047,2469.96,2020-5-21T04:25:40Z
2020-05-21T02:28:01Z,42.805,6.029,13.3024,4.60053,2469.97,2020-5-21T04:28:44Z
2020-05-21T02:31:05Z,42.805,6.029,13.3010,4.60063,2470.007,2020-5-21T04:31:47Z
2020-05-21T02:34:08Z,42.805,6.029,13.3001,4.60082,2470.017,2020-5-21T04:34:50Z
2020-05-21T02:37:11Z,42.805,6.029,13.3007,4.60031,2469.993,2020-5-21T04:37:54Z
2020-05-21T02:40:15Z,42.805,6.029,13.3016,4.60030,2470.007,2020-5-21T04:40:57Z
2020-05-21T02:43:18Z,42.805,6.029,13.3006,4.60018,2470.017,2020-5-21T04:44:01Z
2020-05-21T02:46:21Z,42.805,6.029,13.3011,4.60042,2469.993,2020-5-21T04:47:04Z
2020-05-21T02:49:24Z,42.805,6.029,13.3000,4.60057,2469.97,2020-5-21T04:50:07Z
2020-05-21T02:52:28Z,42.805,6.029,13.3009,4.60023,2470.017,2020-5-21T04:53:10Z
2020-05-21T02:55:31Z,42.805,6.029,13.3023,4.60045,2469.993,2020-5-21T04:56:14Z
2020-05-21T02:58:34Z,42.805,6.029,13.3014,4.60046,2469.993,2020-5-21T04:59:17Z
2020-05-21T03:01:38Z,42.805,6.029,13.3011,4.60068,2470.04,2020-5-21T05:02:20Z
2020-05-21T03:04:41Z,42.805,6.029,13.3012,4.60094,2470.007,2020-5-21T05:05:23Z
2020-05-21T03:07:44Z,42.805,6.029,13.3015,4.59997,2469.993,2020-5-21T05:08:27Z
2020-05-21T03:10:47Z,42.805,6.029,13.3008,4.60014,2469.993,2020-5-21T05:11:30Z
2020-05-21T03:13:51Z,42.805,6.029,13.3023,4.60003,2469.993,2020-5-21T05:14:33Z
2020-05-21T03:16:54Z,42.805,6.029,13.3016,4.60034,2470.03,2020-5-21T05:17:36Z
2020-05-21T03:19:57Z,42.805,6.029,13.2999,4.60015,2470.017,2020-5-21T05:20:39Z
2020-05-21T03:23:00Z,42.805,6.029,13.2987,4.60021,2469.993,2020-5-21T05:23:43Z
2020-05-21T03:26:04Z,42.805,6.029,13.3021,4.59996,2470.03,2020-5-21T05:26:46Z
2020-05-21T03:29:07Z,42.805,6.029,13.2994,4.60015,2470.053,2020-5-21T05:29:49Z
2020-05-21T03:32:10Z,42.805,6.029,13.3011,4.60027,2470.017,2020-5-21T05:32:53Z
2020-05-21T03:35:13Z,42.805,6.029,13.3002,4.60013,2470.063,2020-5-21T05:35:56Z
2020-05-21T03:38:17Z,42.805,6.029,13.3026,4.60009,2470.077,2020-5-21T05:38:59Z
2020-05-21T03:41:20Z,42.805,6.029,13.3022,4.60009,2470.053,2020-5-21T05:42:02Z
2020-05-21T03:44:23Z,42.805,6.029,13.3029,4.60032,2470.053,2020-5-21T05:45:05Z
2020-05-21T03:47:26Z,42.805,6.029,13.3034,4.60027,2470.063,2020-5-21T05:48:09Z
2020-05-21T03:50:29Z,42.805,6.029,13.3038,4.60058,2470.063,2020-5-21T05:51:12Z
2020-05-21T03:53:33Z,42.805,6.029,13.3042,4.60029,2469.993,2020-5-21T05:54:15Z
2020-05-21T03:56:36Z,42.805,6.029,13.3050,4.60009,2470.063,2020-5-21T05:57:18Z
2020-05-21T03:59:39Z,42.805,6.029,13.3050,4.60019,2470.077,2020-5-21T06:00:22Z
2020-05-21T04:02:42Z,42.805,6.029,13.3071,4.60033,2470.1,2020-5-21T06:03:25Z
2020-05-21T04:05:46Z,42.805,6.029,13.3002,4.60045,2470.04,2020-5-21T06:06:28Z
2020-05-21T04:08:49Z,42.805,6.029,13.2976,4.60075,2470.077,2020-5-21T06:09:31Z
2020-05-21T04:11:52Z,42.805,6.029,13.2977,4.60097,2470.077,2020-5-21T06:12:35Z
2020-05-21T04:14:56Z,42.805,6.029,13.2974,4.60031,2470.063,2020-5-21T06:15:38Z
2020-05-21T04:17:59Z,42.805,6.029,13.2981,4.60031,2470.063,2020-5-21T06:18:41Z
2020-05-21T04:21:02Z,42.805,6.029,13.2977,4.60026,2470.1,2020-5-21T06:21:45Z
2020-05-21T04:24:05Z,42.805,6.029,13.2974,4.60020,2470.063,2020-5-21T06:24:48Z
2020-05-21T04:27:09Z,42.805,6.029,13.2973,4.60019,2470.1,2020-5-21T06:27:51Z
2020-05-21T04:30:12Z,42.805,6.029,13.2976,4.60035,2470.1,2020-5-21T06:30:54Z
2020-05-21T04:33:15Z,42.805,6.029,13.2977,4.59998,2470.087,2020-5-21T06:33:58Z
2020-05-21T04:36:19Z,42.805,6.029,13.2976,4.59988,2470.124,2020-5-21T06:37:01Z
2020-05-21T04:39:22Z,42.805,6.029,13.2972,4.59988,2470.087,2020-5-21T06:40:04Z
2020-05-21T04:42:25Z,42.805,6.029,13.2975,4.59991,2470.063,2020-5-21T06:43:08Z
2020-05-21T04:45:28Z,42.805,6.029,13.2975,4.59984,2470.11,2020-5-21T06:46:11Z
2020-05-21T04:48:32Z,42.805,6.029,13.2974,4.59986,2470.063,2020-5-21T06:49:14Z
2020-05-21T04:51:35Z,42.805,6.029,13.2971,4.59982,2470.087,2020-5-21T06:52:17Z
2020-05-21T04:54:38Z,42.805,6.029,13.2971,4.59982,2470.1,2020-5-21T06:55:21Z
2020-05-21T04:57:41Z,42.805,6.029,13.2974,4.59983,2470.11,2020-5-21T06:58:24Z
2020-05-21T05:00:45Z,42.805,6.029,13.2976,4.59987,2470.11,2020-5-21T07:01:27Z
2020-05-21T05:03:48Z,42.805,6.029,13.2976,4.59982,2470.133,2020-5-21T07:04:30Z
2020-05-21T05:06:51Z,42.805,6.029,13.2978,4.59984,2470.11,2020-5-21T07:07:34Z
2020-05-21T05:09:54Z,42.805,6.029,13.2976,4.59993,2470.1,2020-5-21T07:10:37Z
2020-05-21T05:12:58Z,42.805,6.029,13.2976,4.59991,2470.124,2020-5-21T07:13:40Z
2020-05-21T05:16:01Z,42.805,6.029,13.2969,4.59995,2470.124,2020-5-21T07:16:43Z
2020-05-21T05:19:04Z,42.805,6.029,13.2975,4.59987,2470.124,2020-5-21T07:19:46Z
2020-05-21T05:22:07Z,42.805,6.029,13.2976,4.59981,2470.147,2020-5-21T07:22:50Z
2020-05-21T05:25:10Z,42.805,6.029,13.2972,4.59980,2470.1,2020-5-21T07:25:53Z
2020-05-21T05:28:14Z,42.805,6.029,13.2976,4.59983,2470.124,2020-5-21T07:28:56Z
2020-05-21T05:31:17Z,42.805,6.029,13.2978,4.59991,2470.11,2020-5-21T07:31:59Z
2020-05-21T05:34:21Z,42.805,6.029,13.2975,4.59980,2470.11,2020-5-21T07:35:03Z
2020-05-21T05:37:24Z,42.805,6.029,13.2976,4.59981,2470.133,2020-5-21T07:38:06Z
2020-05-21T05:40:27Z,42.805,6.029,13.2979,4.59986,2470.133,2020-5-21T07:41:09Z
2020-05-21T05:43:30Z,42.805,6.029,13.2975,4.59980,2470.096,2020-5-21T07:44:13Z
2020-05-21T05:46:33Z,42.805,6.029,13.2976,4.59987,2470.1,2020-5-21T07:47:16Z
2020-05-21T05:49:37Z,42.805,6.029,13.2979,4.59982,2470.11,2020-5-21T07:50:19Z
2020-05-21T05:52:40Z,42.805,6.029,13.2975,4.59980,2470.133,2020-5-21T07:53:22Z
2020-05-21T05:55:43Z,42.805,6.029,13.2972,4.59978,2470.11,2020-5-21T07:56:26Z
2020-05-21T05:58:46Z,42.805,6.029,13.2976,4.59985,2470.11,2020-5-21T07:59:29Z
2020-05-21T06:01:50Z,42.805,6.029,13.2973,4.59983,2470.156,2020-5-21T08:02:32Z
2020-05-21T06:04:53Z,42.805,6.029,13.2979,4.59981,2470.147,2020-5-21T08:05:35Z
2020-05-21T06:07:56Z,42.805,6.029,13.2975,4.59983,2470.156,2020-5-21T08:08:39Z
2020-05-21T06:11:00Z,42.805,6.029,13.2978,4.59976,2470.156,2020-5-21T08:11:42Z
2020-05-21T06:14:03Z,42.805,6.029,13.2980,4.59978,2470.133,2020-5-21T08:14:45Z
2020-05-21T06:17:06Z,42.805,6.029,13.2977,4.59981,2470.147,2020-5-21T08:17:49Z
2020-05-21T06:20:09Z,42.805,6.029,13.2974,4.59981,2470.156,2020-5-21T08:20:52Z
2020-05-21T06:23:13Z,42.805,6.029,13.2976,4.59976,2470.087,2020-5-21T08:23:55Z
2020-05-21T06:26:16Z,42.805,6.029,13.2975,4.59978,2470.1,2020-5-21T08:26:58Z
2020-05-21T06:29:19Z,42.805,6.029,13.2974,4.59976,2470.133,2020-5-21T08:30:02Z
2020-05-21T06:32:23Z,42.805,6.029,13.2978,4.59976,2470.087,2020-5-21T08:33:05Z
2020-05-21T06:35:26Z,42.805,6.029,13.2976,4.59978,2470.133,2020-5-21T08:36:08Z
2020-05-21T06:38:29Z,42.805,6.029,13.2973,4.59978,2470.156,2020-5-21T08:39:12Z
2020-05-21T06:41:32Z,42.805,6.029,13.2974,4.59977,2470.087,2020-5-21T08:42:15Z
2020-05-21T06:44:36Z,42.805,6.029,13.2975,4.59976,2470.11,2020-5-21T08:45:18Z
2020-05-21T06:47:39Z,42.805,6.029,13.2971,4.59976,2470.11,2020-5-21T08:48:22Z
2020-05-21T06:50:42Z,42.805,6.029,13.2972,4.59977,2470.11,2020-5-21T08:51:25Z
2020-05-21T06:53:45Z,42.805,6.029,13.2978,4.59977,2470.133,2020-5-21T08:54:28Z
2020-05-21T06:56:49Z,42.805,6.029,13.2970,4.59973,2470.11,2020-5-21T08:57:31Z
2020-05-21T06:59:52Z,42.805,6.029,13.2973,4.59973,2470.11,2020-5-21T09:00:34Z
2020-05-21T07:02:55Z,42.805,6.029,13.2969,4.59973,2470.087,2020-5-21T09:03:38Z
2020-05-21T07:05:58Z,42.805,6.029,13.2970,4.59972,2470.11,2020-5-21T09:06:41Z
2020-05-21T07:09:02Z,42.805,6.029,13.2971,4.59974,2470.11,2020-5-21T09:09:44Z
2020-05-21T07:12:05Z,42.805,6.029,13.2971,4.59972,2470.147,2020-5-21T09:12:47Z
2020-05-21T07:15:08Z,42.805,6.029,13.2971,4.59971,2470.133,2020-5-21T09:15:51Z
2020-05-21T07:18:11Z,42.805,6.029,13.2969,4.59976,2470.11,2020-5-21T09:18:54Z
2020-05-21T07:21:15Z,42.805,6.029,13.2972,4.59971,2470.124,2020-5-21T09:21:57Z
2020-05-21T07:24:18Z,42.805,6.029,13.2973,4.59971,2470.11,2020-5-21T09:25:01Z
2020-05-21T07:27:21Z,42.805,6.029,13.2966,4.59971,2470.073,2020-5-21T09:28:04Z
2020-05-21T07:30:25Z,42.805,6.029,13.2967,4.59973,2470.11,2020-5-21T09:31:07Z
2020-05-21T07:33:28Z,42.805,6.029,13.2970,4.59972,2470.124,2020-5-21T09:34:10Z
2020-05-21T07:36:31Z,42.805,6.029,13.2969,4.59970,2470.133,2020-5-21T09:37:14Z
2020-05-21T07:39:34Z,42.805,6.029,13.2967,4.59971,2470.11,2020-5-21T09:40:17Z
2020-05-21T07:42:38Z,42.805,6.029,13.2973,4.59970,2470.133,2020-5-21T09:43:20Z
2020-05-21T07:45:41Z,42.805,6.029,13.2970,4.59971,2470.11,2020-5-21T09:46:23Z
2020-05-21T07:48:44Z,42.805,6.029,13.2971,4.59973,2470.11,2020-5-21T09:49:27Z
2020-05-21T07:51:47Z,42.805,6.029,13.2968,4.59971,2470.087,2020-5-21T09:52:30Z
2020-05-21T07:54:51Z,42.805,6.029,13.2968,4.59971,2470.063,2020-5-21T09:55:33Z
2020-05-21T07:57:54Z,42.805,6.029,13.2969,4.59971,2470.1,2020-5-21T09:58:36Z
2020-05-21T08:00:57Z,42.805,6.029,13.2967,4.59971,2470.063,2020-5-21T10:01:40Z
2020-05-21T08:04:01Z,42.805,6.029,13.2971,4.59971,2470.11,2020-5-21T10:04:43Z
2020-05-21T08:07:04Z,42.805,6.029,13.2972,4.59970,2470.087,2020-5-21T10:07:46Z
2020-05-21T08:10:07Z,42.805,6.029,13.2968,4.59971,2470.11,2020-5-21T10:10:49Z
2020-05-21T08:13:10Z,42.805,6.029,13.2969,4.59971,2470.063,2020-5-21T10:13:53Z
2020-05-21T08:16:14Z,42.805,6.029,13.2968,4.59970,2470.087,2020-5-21T10:16:56Z
2020-05-21T08:19:17Z,42.805,6.029,13.2968,4.59971,2470.11,2020-5-21T10:19:59Z
2020-05-21T08:22:20Z,42.805,6.029,13.2972,4.59971,2470.087,2020-5-21T10:23:02Z
2020-05-21T08:25:23Z,42.805,6.029,13.2967,4.59970,2470.063,2020-5-21T10:26:06Z
2020-05-21T08:28:26Z,42.805,6.029,13.2968,4.59972,2470.1,2020-5-21T10:29:09Z
2020-05-21T08:31:30Z,42.805,6.029,13.2972,4.59969,2470.077,2020-5-21T10:32:12Z
2020-05-21T08:34:33Z,42.805,6.029,13.2968,4.59971,2470.063,2020-5-21T10:35:15Z
2020-05-21T08:37:36Z,42.805,6.029,13.2970,4.59969,2470.1,2020-5-21T10:38:19Z
2020-05-21T08:40:39Z,42.805,6.029,13.2965,4.59971,2470.063,2020-5-21T10:41:22Z
2020-05-21T08:43:43Z,42.805,6.029,13.2971,4.59971,2470.087,2020-5-21T10:44:25Z
2020-05-21T08:46:46Z,42.805,6.029,13.2968,4.59969,2470.077,2020-5-21T10:47:28Z
2020-05-21T08:49:49Z,42.805,6.029,13.2966,4.59972,2470.063,2020-5-21T10:50:32Z
2020-05-21T08:52:53Z,42.805,6.029,13.2970,4.59973,2470.063,2020-5-21T10:53:35Z
2020-05-21T08:55:56Z,42.805,6.029,13.2967,4.59971,2470.063,2020-5-21T10:56:38Z
2020-05-21T08:58:59Z,42.805,6.029,13.2968,4.59971,2470.063,2020-5-21T10:59:42Z
2020-05-21T09:02:02Z,42.805,6.029,13.2968,4.59971,2470.077,2020-5-21T11:02:45Z
2020-05-21T09:05:06Z,42.805,6.029,13.2968,4.59970,2470.017,2020-5-21T11:05:48Z
2020-05-21T09:08:09Z,42.805,6.029,13.2970,4.59969,2470.053,2020-5-21T11:08:51Z
2020-05-21T09:11:12Z,42.805,6.029,13.2970,4.59971,2470.04,2020-5-21T11:11:55Z
2020-05-21T09:14:15Z,42.805,6.029,13.2971,4.59972,2470.063,2020-5-21T11:14:58Z
2020-05-21T09:17:19Z,42.805,6.029,13.2968,4.59971,2470.04,2020-5-21T11:18:01Z
2020-05-21T09:20:22Z,42.805,6.029,13.2969,4.59972,2470.04,2020-5-21T11:21:04Z
2020-05-21T09:23:25Z,42.805,6.029,13.2971,4.59971,2470.017,2020-5-21T11:24:07Z
2020-05-21T09:26:28Z,42.805,6.029,13.2968,4.59971,2470.04,2020-5-21T11:27:11Z
2020-05-21T09:29:32Z,42.805,6.029,13.2965,4.59973,2470.04,2020-5-21T11:30:14Z
2020-05-21T09:32:35Z,42.805,6.029,13.2965,4.59971,2470.04,2020-5-21T11:33:17Z
2020-05-21T09:35:38Z,42.805,6.029,13.2968,4.59969,2470.053,2020-5-21T11:36:21Z
2020-05-21T09:38:41Z,42.805,6.029,13.2967,4.59969,2470.063,2020-5-21T11:39:24Z
2020-05-21T09:41:45Z,42.805,6.029,13.2970,4.59973,2470.017,2020-5-21T11:42:27Z
2020-05-21T09:44:48Z,42.805,6.029,13.2969,4.59970,2470.04,2020-5-21T11:45:30Z
2020-05-21T09:47:51Z,42.805,6.029,13.2967,4.59971,2470.017,2020-5-21T11:48:34Z
2020-05-21T09:50:54Z,42.805,6.029,13.2968,4.59971,2470.017,2020-5-21T11:51:37Z
2020-05-21T09:53:58Z,42.805,6.029,13.2971,4.59969,2470.007,2020-5-21T11:54:40Z
2020-05-21T09:57:01Z,42.805,6.029,13.2968,4.59972,2470.03,2020-5-21T11:57:43Z
2020-05-21T10:00:04Z,42.805,6.029,13.2967,4.59970,2470.03,2020-5-21T12:00:47Z
2020-05-21T10:03:08Z,42.805,6.029,13.2966,4.59969,2470.053,2020-5-21T12:03:50Z
2020-05-21T10:06:11Z,42.805,6.029,13.2968,4.59970,2470.03,2020-5-21T12:06:53Z
2020-05-21T10:09:14Z,42.805,6.029,13.2968,4.59970,2469.993,2020-5-21T12:09:56Z
2020-05-21T10:12:17Z,42.805,6.029,13.2966,4.59970,2470.04,2020-5-21T12:13:00Z
2020-05-21T10:15:20Z,42.805,6.029,13.2968,4.59968,2470.007,2020-5-21T12:16:03Z
2020-05-21T10:18:24Z,42.805,6.029,13.2966,4.59969,2469.993,2020-5-21T12:19:06Z
2020-05-21T10:21:27Z,42.805,6.029,13.2968,4.59970,2470.017,2020-5-21T12:22:10Z
2020-05-21T10:24:30Z,42.805,6.029,13.2968,4.59971,2469.993,2020-5-21T12:25:13Z
2020-05-21T10:27:34Z,42.805,6.029,13.2967,4.59970,2470.017,2020-5-21T12:28:16Z
2020-05-21T10:30:37Z,42.805,6.029,13.2969,4.59970,2470.003,2020-5-21T12:31:20Z
2020-05-21T10:33:40Z,42.805,6.029,13.2967,4.59972,2470.03,2020-5-21T12:34:23Z
2020-05-21T10:36:44Z,42.805,6.029,13.2967,4.59969,2469.993,2020-5-21T12:37:26Z
2020-05-21T10:39:47Z,42.805,6.029,13.2968,4.59968,2470.017,2020-5-21T12:40:29Z
2020-05-21T10:42:50Z,42.805,6.029,13.2963,4.59969,2469.97,2020-5-21T12:43:32Z
2020-05-21T10:45:53Z,42.805,6.029,13.2964,4.59968,2469.984,2020-5-21T12:46:36Z
2020-05-21T10:48:57Z,42.805,6.029,13.2967,4.59968,2470.017,2020-5-21T12:49:39Z
2020-05-21T10:52:00Z,42.805,6.029,13.2967,4.59969,2469.984,2020-5-21T12:52:42Z
2020-05-21T10:55:03Z,42.805,6.029,13.2968,4.59970,2469.97,2020-5-21T12:55:45Z
2020-05-21T10:58:06Z,42.805,6.029,13.2967,4.59970,2469.993,2020-5-21T12:58:49Z
2020-05-21T11:01:10Z,42.805,6.029,13.2970,4.59972,2469.97,2020-5-21T13:01:52Z
2020-05-21T11:04:13Z,42.805,6.029,13.2968,4.59974,2470.007,2020-5-21T13:04:55Z
2020-05-21T11:07:16Z,42.805,6.029,13.2969,4.59970,2470.03,2020-5-21T13:07:58Z
2020-05-21T11:10:19Z,42.805,6.029,13.2967,4.59969,2469.993,2020-5-21T13:11:02Z
2020-05-21T11:13:23Z,42.805,6.029,13.2967,4.59969,2469.97,2020-5-21T13:14:05Z
2020-05-21T11:16:26Z,42.805,6.029,13.2969,4.59971,2469.993,2020-5-21T13:17:08Z
2020-05-21T11:19:29Z,42.805,6.029,13.2972,4.59969,2469.993,2020-5-21T13:20:11Z
2020-05-21T11:22:32Z,42.805,6.029,13.2970,4.59971,2469.993,2020-5-21T13:23:15Z
2020-05-21T11:25:36Z,42.805,6.029,13.2970,4.59970,2469.993,2020-5-21T13:26:18Z
2020-05-21T11:28:39Z,42.805,6.029,13.2971,4.59969,2469.923,2020-5-21T13:29:21Z
2020-05-21T11:31:42Z,42.805,6.029,13.2969,4.59968,2469.947,2020-5-21T13:32:24Z
2020-05-21T11:34:45Z,42.805,6.029,13.2966,4.59971,2469.984,2020-5-21T13:35:28Z
2020-05-21T11:37:49Z,42.805,6.029,13.2971,4.59970,2469.97,2020-5-21T13:38:31Z
2020-05-21T11:40:52Z,42.805,6.029,13.2964,4.59969,2469.97,2020-5-21T13:41:34Z
2020-05-21T11:43:55Z,42.805,6.029,13.2971,4.59969,2469.947,2020-5-21T13:44:38Z
2020-05-21T11:46:58Z,42.805,6.029,13.2971,4.59969,2469.923,2020-5-21T13:47:41Z
2020-05-21T11:50:02Z,42.805,6.029,13.2968,4.59969,2469.97,2020-5-21T13:50:44Z
2020-05-21T11:53:05Z,42.805,6.029,13.2968,4.59970,2469.923,2020-5-21T13:53:47Z
2020-05-21T11:56:08Z,42.805,6.029,13.2968,4.59968,2469.947,2020-5-21T13:56:50Z
2020-05-21T11:59:11Z,42.805,6.029,13.2971,4.59973,2469.947,2020-5-21T13:59:54Z
2020-05-21T12:02:15Z,42.805,6.029,13.2968,4.59969,2469.923,2020-5-21T14:02:57Z
2020-05-21T12:05:18Z,42.805,6.029,13.2969,4.59969,2469.947,2020-5-21T14:06:00Z
2020-05-21T12:08:21Z,42.805,6.029,13.2965,4.59968,2469.984,2020-5-21T14:09:04Z
2020-05-21T12:11:25Z,42.805,6.029,13.2968,4.59975,2469.984,2020-5-21T14:12:07Z
2020-05-21T12:14:28Z,42.805,6.029,13.2971,4.59973,2469.97,2020-5-21T14:15:10Z
2020-05-21T12:17:31Z,42.805,6.029,13.2966,4.59976,2469.97,2020-5-21T14:18:14Z
2020-05-21T12:20:35Z,42.805,6.029,13.2968,4.59969,2469.96,2020-5-21T14:21:17Z
2020-05-21T12:23:38Z,42.805,6.029,13.2967,4.59972,2469.96,2020-5-21T14:24:20Z
2020-05-21T12:26:41Z,42.805,6.029,13.2966,4.59969,2469.947,2020-5-21T14:27:24Z
2020-05-21T12:29:44Z,42.805,6.029,13.2970,4.59968,2469.96,2020-5-21T14:30:27Z
2020-05-21T12:32:48Z,42.805,6.029,13.2972,4.59968,2469.96,2020-5-21T14:33:30Z
2020-05-21T12:35:51Z,42.805,6.029,13.2968,4.59970,2469.923,2020-5-21T14:36:33Z
2020-05-21T12:38:54Z,42.805,6.029,13.2968,4.59968,2469.96,2020-5-21T14:39:36Z
2020-05-21T12:41:57Z,42.805,6.029,13.2970,4.59970,2469.923,2020-5-21T14:42:40Z
2020-05-21T12:45:01Z,42.805,6.029,13.2969,4.59969,2469.947,2020-5-21T14:45:43Z
2020-05-21T12:48:04Z,42.805,6.029,13.2969,4.59971,2469.947,2020-5-21T14:48:46Z
2020-05-21T12:51:07Z,42.805,6.029,13.2965,4.59972,2469.923,2020-5-21T14:51:50Z
2020-05-21T12:54:10Z,42.805,6.029,13.2968,4.59969,2469.96,2020-5-21T14:54:53Z
2020-05-21T12:57:14Z,42.805,6.029,13.2966,4.59968,2469.984,2020-5-21T14:57:56Z
2020-05-21T13:00:17Z,42.805,6.029,13.2966,4.59969,2469.96,2020-5-21T15:00:59Z
2020-05-21T13:03:20Z,42.805,6.029,13.2968,4.59971,2469.947,2020-5-21T15:04:02Z
2020-05-21T13:06:23Z,42.805,6.029,13.2969,4.59972,2469.923,2020-5-21T15:07:06Z
2020-05-21T13:09:27Z,42.805,6.029,13.2968,4.59969,2469.947,2020-5-21T15:10:09Z
2020-05-21T13:12:30Z,42.805,6.029,13.2966,4.59970,2469.923,2020-5-21T15:13:12Z
2020-05-21T13:15:33Z,42.805,6.029,13.2970,4.59971,2469.947,2020-5-21T15:16:16Z
2020-05-21T13:18:36Z,42.805,6.029,13.2971,4.59971,2469.947,2020-5-21T15:19:19Z
2020-05-21T13:21:40Z,42.805,6.029,13.2968,4.59971,2469.947,2020-5-21T15:22:22Z
2020-05-21T13:24:43Z,42.805,6.029,13.2968,4.59970,2469.947,2020-5-21T15:25:25Z
2020-05-21T13:27:46Z,42.805,6.029,13.2967,4.59969,2469.947,2020-5-21T15:28:28Z
2020-05-21T13:30:49Z,42.805,6.029,13.2968,4.59971,2469.984,2020-5-21T15:31:32Z
2020-05-21T13:33:52Z,42.805,6.029,13.2967,4.59969,2469.923,2020-5-21T15:34:35Z
2020-05-21T13:36:56Z,42.805,6.029,13.2971,4.59969,2469.947,2020-5-21T15:37:38Z
2020-05-21T13:39:59Z,42.805,6.029,13.2970,4.59971,2469.947,2020-5-21T15:40:42Z
2020-05-21T13:43:03Z,42.805,6.029,13.2967,4.59970,2469.96,2020-5-21T15:43:45Z
2020-05-21T13:46:06Z,42.805,6.029,13.2968,4.59971,2469.97,2020-5-21T15:46:48Z
2020-05-21T13:49:09Z,42.805,6.029,13.2968,4.59969,2469.96,2020-5-21T15:49:51Z
2020-05-21T13:52:12Z,42.805,6.029,13.2968,4.59970,2469.97,2020-5-21T15:52:55Z
2020-05-21T13:55:16Z,42.805,6.029,13.2966,4.59970,2469.947,2020-5-21T15:55:58Z
2020-05-21T13:58:19Z,42.805,6.029,13.2967,4.59968,2469.97,2020-5-21T15:59:01Z
2020-05-21T14:01:22Z,42.805,6.029,13.2967,4.59969,2469.97,2020-5-21T16:02:05Z
2020-05-21T14:04:25Z,42.805,6.029,13.2971,4.59966,2469.947,2020-5-21T16:05:08Z
2020-05-21T14:07:29Z,42.805,6.029,13.2970,4.59970,2469.947,2020-5-21T16:08:11Z
2020-05-21T14:10:32Z,42.805,6.029,13.2967,4.59971,2469.947,2020-5-21T16:11:14Z
2020-05-21T14:13:35Z,42.805,6.029,13.2967,4.59972,2469.984,2020-5-21T16:14:17Z
2020-05-21T14:16:38Z,42.805,6.029,13.2966,4.59973,2469.97,2020-5-21T16:17:21Z
2020-05-21T14:19:42Z,42.805,6.029,13.2970,4.59970,2469.97,2020-5-21T16:20:24Z
2020-05-21T14:22:45Z,42.805,6.029,13.2966,4.59971,2469.96,2020-5-21T16:23:27Z
2020-05-21T14:25:48Z,42.805,6.029,13.2970,4.59973,2469.947,2020-5-21T16:26:31Z
2020-05-21T14:28:52Z,42.805,6.029,13.2967,4.59972,2469.97,2020-5-21T16:29:34Z
2020-05-21T14:31:55Z,42.805,6.029,13.2967,4.59970,2469.96,2020-5-21T16:32:37Z
2020-05-21T14:34:58Z,42.805,6.029,13.2970,4.59971,2469.956,2020-5-21T16:35:40Z
2020-05-21T14:38:01Z,42.805,6.029,13.2972,4.59971,2469.97,2020-5-21T16:38:44Z
2020-05-21T14:41:04Z,42.805,6.029,13.2968,4.59971,2469.937,2020-5-21T16:41:47Z
2020-05-21T14:44:08Z,42.805,6.029,13.2967,4.59972,2469.97,2020-5-21T16:44:50Z
2020-05-21T14:47:11Z,42.805,6.029,13.2971,4.59971,2469.984,2020-5-21T16:47:53Z
2020-05-21T14:50:14Z,42.805,6.029,13.2968,4.59974,2469.97,2020-5-21T16:50:57Z
2020-05-21T14:53:18Z,42.805,6.029,13.2969,4.59970,2469.97,2020-5-21T16:54:00Z
2020-05-21T14:56:21Z,42.805,6.029,13.2967,4.59973,2469.993,2020-5-21T16:57:03Z
2020-05-21T14:59:24Z,42.805,6.029,13.2972,4.59971,2469.993,2020-5-21T17:00:07Z
2020-05-21T15:02:27Z,42.805,6.029,13.2968,4.59973,2470.007,2020-5-21T17:03:10Z
2020-05-21T15:05:31Z,42.805,6.029,13.2970,4.59970,2469.993,2020-5-21T17:06:13Z
2020-05-21T15:08:34Z,42.805,6.029,13.2967,4.59971,2469.984,2020-5-21T17:09:16Z
2020-05-21T15:11:37Z,42.805,6.029,13.2971,4.59970,2469.979,2020-5-21T17:12:20Z
2020-05-21T15:14:40Z,42.805,6.029,13.2968,4.59971,2469.947,2020-5-21T17:15:23Z